Weather History for New Bern, NC

Change the Weather History Date:

Saturday, March 9, 2013

  Actual Average Record
Temperature  
Mean Temperature 50 °F 51 °F  
Max Temperature 63 °F 63 °F 83 °F (2009)
Min Temperature 37 °F 40 °F 19 °F (1960)
Degree Days  
Heating Degree Days 15 14  
Month to date heating degree days 170 133  
Since 1 July heating degree days 2096 2279  
Cooling Degree Days 0 0  
Month to date cooling degree days 0 0  
Year to date cooling degree days 7 3  
Moisture  
Dew Point 30 °F    
Average Humidity 56    
Maximum Humidity 82    
Minimum Humidity 30    
Precipitation  
Precipitation 0.00 in 0.15 in 0.77 in (1976)
Month to date precipitation 0.08 1.30  
Year to date precipitation 6.22 8.98  
Snow  
Snow 0.00 in - - ()
Month to date snowfall 0.0  
Since 1 July snowfall T  
Snow Depth 0.00 in    
Sea Level Pressure  
Sea Level Pressure 30.27 in    
Wind  
Wind Speed 7 mph (North)    
Max Wind Speed 17 mph    
Max Gust Speed 22 mph    
Visibility 10 miles    
Events      
T = Trace of Precipitation, MM = Missing Value Source: NWS Daily Summary

Daily Weather History Graph

Daily Weather History Graph

Search for Another Location

Airport:

Trip Planner

Search our weather history database for the weather conditions in past years. The results will help you decide how hot, cold, wet, or windy it might be!

Date:

Astronomy

Mar. 09, 2013 Rise Set
Actual Time 6:26 AM EST 6:10 PM EST
Civil Twilight 6:01 AM EST 6:36 PM EST
Nautical Twilight 5:32 AM EST 7:05 PM EST
Astronomical Twilight 5:02 AM EST 7:35 PM EST
Moon 4:45 AM EST (3/9) 4:13 PM EST (3/9)
Length of Visible Light 12h 34m
Length of Day
11h 44m
Waning Crescent, 5% of the Moon is Illuminated
Mar 9
Waning Crescent
Mar 11
New
Mar 19
First Quarter
Mar 27
Full
Apr 3
Last Quarter

Hourly Weather History & Observations

Time (EST) Temp. Windchill Dew Point Humidity Pressure Visibility Wind Dir Wind Speed Gust Speed Precip Events Conditions
12:54 AM 43.0 °F 38.8 °F 28.9 °F 58% 30.23 in 10.0 mi NNW 6.9 mph - N/A   Clear
1:54 AM 42.1 °F 37.7 °F 28.9 °F 60% 30.23 in 10.0 mi NW 6.9 mph - N/A   Clear
2:54 AM 42.1 °F 37.1 °F 28.9 °F 60% 30.23 in 10.0 mi NW 8.1 mph - N/A   Clear
3:54 AM 42.1 °F 36.1 °F 28.0 °F 58% 30.23 in 10.0 mi NW 10.4 mph - N/A   Clear
4:54 AM 41.0 °F 35.2 °F 28.0 °F 60% 30.25 in 10.0 mi NNW 9.2 mph - N/A   Clear
5:54 AM 41.0 °F 35.2 °F 28.0 °F 60% 30.25 in 10.0 mi NNW 9.2 mph - N/A   Clear
6:54 AM 41.0 °F 36.4 °F 28.0 °F 60% 30.28 in 10.0 mi NNW 6.9 mph - N/A   Clear
7:54 AM 43.0 °F 36.4 °F 28.9 °F 58% 30.28 in 10.0 mi North 12.7 mph - N/A   Clear
8:54 AM 46.9 °F - 28.9 °F 50% 30.29 in 10.0 mi NNE 10.4 mph - N/A   Clear
9:54 AM 51.1 °F - 27.0 °F 39% 30.29 in 10.0 mi North 6.9 mph - N/A   Clear
10:54 AM 55.9 °F - 28.9 °F 36% 30.29 in 10.0 mi North 12.7 mph - N/A   Clear
11:54 AM 59.0 °F - 30.9 °F 35% 30.28 in 10.0 mi North 13.8 mph - N/A   Clear
12:54 PM 60.1 °F - 30.9 °F 33% 30.27 in 10.0 mi North 9.2 mph - N/A   Clear
1:54 PM 62.1 °F - 30.9 °F 31% 30.25 in 10.0 mi NNE 10.4 mph - N/A   Clear
2:54 PM 62.1 °F - 30.9 °F 31% 30.24 in 10.0 mi North 8.1 mph - N/A   Clear
3:54 PM 63.0 °F - 30.0 °F 29% 30.24 in 10.0 mi North 3.5 mph - N/A   Clear
4:54 PM 62.1 °F - 30.9 °F 31% 30.23 in 10.0 mi NNE 8.1 mph - N/A   Clear
5:54 PM 57.0 °F - 33.1 °F 40% 30.25 in 10.0 mi North 4.6 mph - N/A   Clear
6:54 PM 50.0 °F - 33.1 °F 52% 30.27 in 10.0 mi Calm Calm - N/A   Clear
7:54 PM 46.0 °F - 33.1 °F 61% 30.29 in 10.0 mi Calm Calm - N/A   Clear
8:54 PM 43.0 °F - 33.1 °F 68% 30.30 in 10.0 mi Calm Calm - N/A   Clear
9:54 PM 39.9 °F - 34.0 °F 79% 30.30 in 10.0 mi Calm Calm - N/A   Clear
10:54 PM 37.0 °F - 32.0 °F 82% 30.31 in 10.0 mi Calm Calm - N/A   Clear
11:54 PM 37.0 °F - 32.0 °F 82% 30.30 in 10.0 mi Calm Calm - N/A   Clear